EHI
0 0 0 0 0 0 0 0 0 0 0 0 0 0 0 0 0 0 0 0 2 8 17 26 30 26 18 11 7 3 1 0 0 0 0 0 0 0 0 0 0 0 0 0
0 0 0 0 0 0 0 0 0 0 0 0 0 0 0 0 0 0 0 0 1 5 13 22 28 27 21 16 10 4 1 0 0 0 0 0 0 0 0 0 0 0 0 0
0 0 0 0 0 0 0 0 0 0 0 0 0 0 0 0 0 0 0 0 0 2 7 17 26 30 27 20 13 6 1 0 0 0 0 0 0 0 0 0 0 0 0 0
0 0 0 0 0 0 0 0 0 0 0 0 0 0 0 0 0 0 0 0 0 1 4 12 23 31 29 19 11 5 1 0 0 0 0 0 0 0 0 0 0 0 0 0
0 0 0 0 0 0 0 0 0 0 0 0 0 0 0 0 0 0 0 0 0 0 3 14 28 34 29 18 8 3 0 0 0 0 0 0 0 0 0 0 0 0 0 0
0 0 0 0 0 0 0 0 0 0 0 0 0 0 0 0 0 0 0 0 1 1 8 26 45 49 37 20 8 3 0 0 0 0 0 0 0 0 0 0 0 0 0 0
0 0 0 0 0 0 0 0 0 0 0 0 0 0 0 0 0 0 0 0 1 3 14 37 60 66 50 28 13 5 2 1 1 0 0 0 0 0 0 0 0 0 0 0
0 0 0 0 0 0 0 0 0 0 0 0 0 0 0 0 0 0 0 0 0 5 17 38 61 71 61 41 24 12 6 5 4 1 0 0 0 0 0 0 0 0 0 0
0 0 0 0 0 0 0 0 0 0 0 0 0 0 0 0 0 0 0 0 0 4 14 30 50 63 61 50 35 21 12 9 6 2 0 0 0 0 0 0 0 0 0 0
0 0 0 0 0 0 0 0 0 0 0 0 0 0 0 0 0 0 0 0 0 1 7 19 33 45 51 49 39 26 16 11 7 3 1 0 0 0 0 0 0 0 0 0
0 0 0 0 0 0 0 0 0 0 0 0 0 0 0 0 0 0 0 0 0 0 3 9 18 27 35 42 37 25 15 9 5 2 1 1 0 0 0 0 0 0 0 0
0 0 0 0 0 0 0 0 0 0 0 0 0 0 0 0 0 0 0 0 0 0 1 3 8 14 22 30 31 22 11 4 1 0 0 0 0 0 0 0 0 0 0 0
0 0 0 0 0 0 0 0 0 0 0 0 0 0 0 0 0 0 0 0 0 0 0 0 2 7 12 17 19 14 6 1 0 0 0 0 0 0 0 0 0 0 0 0
0 0 0 0 0 0 0 0 0 0 0 0 0 0 0 0 0 0 0 0 0 0 0 0 1 2 4 6 8 6 2 0 0 0 0 0 0 0 0 0 0 0 0 0
0 0 0 0 0 0 0 0 0 0 0 0 0 0 0 0 0 0 0 0 0 0 0 0 0 0 1 2 2 1 0 0 0 0 0 0 0 0 0 0 0 0 0 0
0 0 0 0 0 0 0 0 0 0 0 0 0 0 0 0 0 0 0 0 0 0 0 0 0 0 0 0 0 0 0 0 0 0 0 0 0 0 0 0 0 0 0 0
0 0 0 0 0 0 0 0 0 0 0 0 0 0 0 0 0 0 0 0 0 0 0 0 0 0 0 0 0 0 0 0 0 0 0 0 0 0 0 0 0 0 0 0
0 0 0 0 0 0 0 0 0 0 0 0 0 0 0 0 0 0 0 0 0 0 0 0 0 0 0 0 0 0 0 0 0 0 0 0 0 0 0 0 0 0 0 0
0 0 0 0 0 0 0 0 0 0 0 0 0 0 0 0 0 0 0 0 0 0 0 0 0 0 0 0 0 0 0 0 0 0 0 0 0 0 0 0 0 0 0 0
0 0 0 0 0 0 0 0 0 0 0 0 0 0 0 0 0 0 0 0 0 0 0 0 0 0 0 0 0 0 0 0 0 0 0 0 0 0 0 0 0 0 0 0
0 0 0 0 0 0 0 0 0 0 0 0 0 0 0 0 0 0 0 0 0 0 0 0 0 0 0 0 0 0 0 0 0 0 0 0 0 0 0 0 0 0 0 0
0 0 0 0 0 0 0 0 0 0 0 0 0 0 0 0 0 0 0 0 0 0 0 0 0 0 0 0 0 0 0 0 0 0 0 0 0 0 0 0 0 0 0 0
0 0 0 0 0 0 0 0 0 0 0 0 0 0 0 0 0 0 0 0 0 0 0 0 0 0 0 0 0 0 0 0 0 0 0 0 0 0 0 0 0 0 0 0
0 0 0 0 0 0 0 0 0 0 0 0 0 0 0 0 0 0 0 0 0 0 0 0 0 0 0 0 0 0 0 0 0 0 0 0 0 0 0 0 0 0 0 0
0 0 0 0 0 0 0 0 0 0 0 0 0 0 0 0 0 0 0 0 0 0 0 0 0 0 0 0 0 0 0 0 0 0 0 0 0 0 0 0 0 0 0 0
0 0 0 0 1 0 0 0 0 0 0 0 0 0 0 0 0 0 0 0 0 0 0 0 0 0 0 0 0 0 0 0 0 0 0 0 0 0 0 0 0 0 0 0
0 0 0 0 1 0 0 0 0 0 0 0 0 0 0 0 0 0 0 0 0 0 0 0 0 0 0 0 0 0 0 0 0 0 0 0 0 0 0 0 0 0 0 0
Wind_Speed
15 17 19 20 19 17 16 15 16 16 16 14 12 12 12 11 10 11 9 7 6 3 2 2 3 3 3 3 2 2 2 2 1 1 1 2 3 4 4 5 6 6 7 7
17 18 19 19 18 16 13 12 13 14 13 14 14 14 13 13 13 12 10 9 7 4 2 2 3 3 3 2 2 3 3 3 2 1 2 3 3 3 3 4 5 5 6 7
15 17 17 14 10 8 7 10 12 13 14 15 15 15 15 15 14 14 12 9 7 5 3 2 3 2 3 3 3 4 4 4 3 3 4 4 3 4 3 4 4 4 5 6
12 14 14 7 11 11 8 10 15 15 16 17 17 17 16 13 12 14 13 11 8 6 4 3 3 3 3 4 4 5 5 5 4 5 6 5 5 4 4 4 4 3 5 5
9 13 13 7 12 11 8 6 18 17 18 20 20 19 15 16 17 16 14 11 8 7 7 4 4 4 4 5 5 6 6 6 6 6 6 7 6 6 5 4 4 4 5 5
10 14 14 9 14 13 10 3 18 19 19 20 21 16 14 19 21 19 15 11 9 8 7 5 5 5 6 6 6 6 6 6 6 6 6 7 7 7 5 5 5 5 5 5
12 13 6 11 14 13 7 10 19 19 20 20 18 16 18 21 19 18 17 15 12 9 6 5 5 6 7 8 7 6 6 6 6 7 6 7 7 7 6 6 6 5 6 5
8 10 4 16 12 9 9 12 15 17 17 18 18 19 20 20 20 19 19 19 16 11 7 5 5 7 9 8 7 6 6 7 7 7 8 8 8 8 7 7 7 6 6 5
5 5 8 12 11 9 11 13 14 16 17 18 19 19 20 19 19 18 19 18 16 14 12 8 6 8 10 9 7 7 6 7 7 8 6 7 9 9 8 7 7 7 7 6
3 8 8 10 11 12 12 14 15 16 17 18 18 19 19 17 17 17 16 16 16 15 14 12 8 9 9 9 8 8 7 7 6 7 7 8 7 7 8 8 7 7 7 7
5 9 10 10 14 16 16 17 18 18 19 19 20 20 19 16 15 15 15 14 15 15 15 13 11 11 9 8 8 9 8 8 8 8 8 8 7 5 6 5 6 7 6 7
5 7 9 12 14 16 17 18 19 20 21 21 20 20 19 17 14 13 14 14 14 15 16 16 14 12 10 8 8 9 9 8 8 7 7 8 8 6 6 5 7 7 5 6
5 8 10 13 16 17 18 20 21 21 22 22 20 19 19 16 14 14 14 14 14 15 15 16 15 14 11 8 7 8 9 9 8 8 9 9 9 9 8 6 6 7 8 11
8 10 14 15 18 19 21 22 22 22 22 21 20 19 18 17 16 16 16 15 15 15 14 14 14 14 11 7 6 8 11 10 9 8 9 10 10 10 10 11 9 6 6 13
10 12 16 19 20 21 21 22 23 22 22 21 20 20 19 18 17 18 17 16 14 14 15 14 14 15 12 9 6 7 9 9 9 9 9 9 10 11 11 12 11 10 9 7
15 17 19 20 21 22 23 24 23 23 22 22 21 20 20 20 19 18 18 17 14 14 14 14 14 13 12 10 7 6 7 11 11 9 10 10 10 11 10 10 11 12 12 11
17 19 20 22 22 23 23 23 23 22 22 22 22 22 21 21 20 19 17 17 16 14 13 13 13 12 10 11 8 6 7 10 12 11 10 10 10 11 10 10 11 11 12 14
18 20 21 22 22 23 23 23 22 23 22 21 22 21 21 21 21 20 19 18 17 16 15 14 13 10 9 10 8 6 6 7 10 12 10 9 10 10 10 9 11 12 10 14
21 21 22 22 22 22 22 22 22 21 21 20 21 21 20 20 20 20 20 19 18 17 14 12 11 10 9 9 9 6 6 8 9 11 11 10 10 10 10 9 10 10 11 13
22 22 23 23 23 22 22 21 21 20 20 21 21 20 20 19 19 19 19 18 15 13 13 11 11 10 8 7 7 6 6 7 8 10 11 11 11 10 10 10 9 10 10 13
22 23 24 24 23 23 22 22 20 21 20 20 20 20 20 19 19 17 16 15 15 14 13 11 9 8 6 5 5 6 6 6 7 7 9 10 11 11 11 10 9 9 9 11
22 22 24 24 23 22 21 20 20 20 20 19 20 21 21 20 19 17 17 14 14 13 11 9 8 7 5 4 4 5 6 6 6 5 7 8 8 10 10 10 9 9 8 8
21 22 23 23 23 23 23 20 19 18 19 19 19 19 19 17 14 14 15 12 12 12 10 9 7 7 7 5 4 5 6 6 5 5 5 6 7 8 9 10 9 8 8 8
21 21 21 22 22 22 21 20 19 16 18 18 17 18 18 15 13 12 13 14 14 14 11 10 9 10 9 5 4 4 5 5 5 5 5 6 6 6 7 8 9 8 8 9
21 21 21 21 20 17 18 18 19 18 18 15 18 19 15 12 13 13 13 15 15 13 11 10 11 11 9 6 6 5 6 6 5 5 5 5 6 5 5 5 6 7 7 7
19 17 16 16 15 14 15 14 14 15 15 15 15 14 14 13 14 13 11 13 15 12 11 8 8 9 8 8 7 7 6 6 6 5 6 5 6 6 5 5 6 5 5 6
19 17 14 15 15 15 15 15 15 16 16 15 16 16 15 14 13 12 12 10 10 9 8 8 7 7 8 8 7 6 6 5 5 5 6 6 5 5 6 6 5 4 4 4
Wind_Direction
295 300 298 295 293 292 288 287 289 299 307 325 341 341 340 335 327 317 309 301 295 275 235 227 241 255 270 275 273 282 288 301 298 69 87 81 62 56 55 52 55 62 68 63
288 289 292 292 289 286 290 305 312 319 329 351 351 348 343 336 326 317 309 304 302 300 286 248 239 253 266 273 253 250 258 256 225 175 145 132 118 104 87 78 67 63 68 67
291 296 296 291 302 314 331 344 345 344 349 352 350 350 342 332 328 327 322 321 320 317 298 256 238 230 244 249 229 227 236 236 210 187 172 159 151 135 120 105 97 87 83 80
283 288 281 303 2 357 354 22 16 9 2 356 350 342 328 329 352 345 332 324 320 315 295 260 231 209 217 237 226 225 227 227 210 191 182 170 164 157 148 139 133 121 107 99
284 287 291 337 23 5 344 16 31 7 355 348 342 330 326 347 345 332 324 314 303 289 278 255 222 210 219 234 238 231 226 220 205 192 184 177 175 170 162 154 150 142 128 122
277 289 294 358 4 346 313 296 19 359 351 344 342 332 328 334 327 321 316 310 297 278 269 249 208 195 213 230 237 235 224 213 196 185 185 182 177 172 166 162 160 152 142 137
265 272 284 21 8 356 342 345 351 350 347 342 337 325 321 324 324 325 321 317 311 291 266 247 211 196 212 226 231 226 209 196 188 183 185 180 172 170 167 169 164 157 147 143
293 293 346 21 33 36 356 343 347 346 343 337 330 327 329 330 328 330 330 329 327 318 294 259 218 208 215 219 219 214 198 190 186 183 191 181 169 170 174 172 163 157 154 149
348 37 68 49 44 24 360 347 342 337 333 329 325 325 326 326 327 329 330 329 329 330 313 290 236 216 225 215 206 205 198 192 188 186 191 169 171 174 174 173 174 170 170 168
354 55 39 49 27 6 352 338 330 325 321 318 316 316 316 317 320 322 325 327 327 325 319 313 300 241 221 218 202 198 198 191 188 183 180 175 178 178 179 182 186 182 180 176
2 16 349 3 357 344 335 327 321 317 313 310 308 307 307 307 311 314 316 318 322 323 317 311 308 292 240 214 205 199 195 191 192 187 181 178 179 175 188 182 190 185 184 177
5 360 327 320 324 321 315 310 308 306 305 305 305 305 305 304 304 304 306 310 312 316 318 316 311 304 280 233 208 202 197 196 194 187 181 177 170 145 64 115 122 130 147 165
317 310 299 297 298 298 297 298 300 301 302 303 303 303 303 302 302 303 304 307 307 309 311 312 310 304 289 262 230 212 204 197 195 189 183 180 177 167 152 110 87 95 115 127
292 293 294 297 299 300 300 301 301 302 304 305 307 308 307 305 304 304 303 302 301 301 302 304 306 302 297 281 249 227 214 204 198 191 187 185 182 180 175 170 166 145 112 129
301 298 296 298 299 302 305 308 309 309 310 309 309 308 307 306 305 304 301 298 292 291 296 299 303 302 301 297 268 237 224 211 200 196 193 191 184 186 184 181 178 166 147 139
307 305 304 307 310 312 313 314 314 313 313 314 314 313 312 309 306 305 306 304 298 293 294 294 292 295 303 301 283 243 234 229 207 198 197 193 189 190 188 182 180 172 169 164
310 313 315 315 315 316 317 317 315 314 314 314 314 313 310 307 305 303 302 302 300 294 290 286 287 290 302 302 283 245 231 229 215 205 200 197 193 190 188 183 183 178 174 170
312 314 316 317 317 317 316 316 315 315 314 315 314 312 310 308 306 304 302 299 296 294 289 283 283 287 293 303 290 258 236 230 216 208 202 199 193 190 191 188 187 184 175 166
322 320 319 318 318 316 316 316 315 314 314 313 310 308 306 306 304 302 301 298 295 293 290 285 283 278 283 289 288 266 242 234 220 207 203 195 192 192 193 194 191 188 175 163
321 320 319 318 318 317 314 313 312 311 311 310 308 306 304 302 302 300 299 295 288 286 288 284 276 273 276 284 289 270 254 242 227 205 199 197 194 193 195 198 195 190 177 167
320 320 319 317 316 314 312 312 310 309 310 309 307 305 304 302 300 299 296 293 290 288 288 279 268 268 270 276 279 264 254 248 236 215 199 197 192 191 195 200 196 192 185 178
319 317 316 315 314 313 312 310 309 310 310 309 309 309 307 305 303 299 292 288 288 287 283 274 264 256 253 267 266 264 257 248 241 219 201 196 191 188 193 198 197 193 191 187
315 314 314 315 314 312 311 311 312 313 311 311 310 308 305 303 300 296 294 291 289 288 285 277 264 237 230 237 249 256 258 253 245 228 208 193 193 191 192 196 199 193 191 194
314 315 316 315 315 314 314 317 316 314 312 311 308 307 305 301 296 290 287 284 277 278 277 271 243 225 221 235 235 236 249 250 238 228 216 196 192 199 196 194 197 197 194 196
316 317 317 320 319 318 318 317 317 317 314 312 309 308 305 297 293 292 290 287 282 273 270 258 230 217 219 231 227 227 236 241 229 221 220 207 195 195 200 194 191 192 192 196
321 318 322 320 320 318 321 321 319 317 315 312 308 305 302 297 292 288 283 280 276 266 263 257 234 218 227 232 224 220 231 234 217 213 216 210 198 187 187 189 185 187 188 190
323 324 323 323 325 325 325 323 320 316 314 311 309 306 301 298 292 286 280 274 269 261 254 248 237 221 221 225 220 216 226 232 223 210 206 203 193 186 186 186 182 171 180 184